Regional Weather Roundup
Issued by NWS Kansas City/Pleasant Hill, MO

Home | Current Version | Previous Version | Graphics & Text | Print | Product List | Glossary Off
Versions: 1 2 3 4 5 6 7 8 9 10 11 12 13 14 15 16 17 18 19 20 21 22 23 24 25 26 27

000
ASUS43 KEAX 011110
RWREAX

WEATHER ROUNDUP FOR EASTERN KANSAS AND NORTHWEST MISSOURI
NATIONAL WEATHER SERVICE KANSAS CITY/PLEASANT HILL MO
600 AM CDT SUN MAY 01 2016

KSZ040-057-103>105-MOZ028-029-037-043-011200-
...KANSAS CITY METROPOLITAN AREA...

CITY           SKY/WX    TMP DP  RH WIND       PRES   REMARKS
K.C. INTL      CLOUDY    50  47  89 SW5       29.90R
K.C. DOWNTOWN  CLOUDY    53  47  79 W6        29.90R
LEES SUMMIT    CLOUDY    50  47  89 SW5       29.90S
OLATHE - IXD   CLEAR     47  44  90 W3        29.91S
OLATHE - OJC   PTCLDY    48  44  86 W3        29.91R
LAWRENCE       CLEAR     46  43  89 W6        29.92R

$$

MOZ001>008-011>017-020>025-030>033-038>040-044>046-053-054-011200-
...NORTHERN AND CENTRAL MISSOURI...

CITY           SKY/WX    TMP DP  RH WIND       PRES   REMARKS
ST. JOSEPH     CLOUDY    53  49  86 W6        29.89S
MOSBY          CLOUDY    54  46  76 W5        29.89S
WARRENSBURG    PTCLDY    48  45  87 SW6       29.90S
WHITEMAN AFB   CLEAR     49  49  99 W7        29.88S
CLINTON        CLEAR     48  46  93 SW7       29.91S
SEDALIA        CLEAR     50  47  89 S5        29.90S
WARSAW         NOT AVBL
CHILLICOTHE      N/A     54  52  93 NE7       29.90S
KIRKSVILLE     CLOUDY    48  46  93 NE9       29.91S FOG

$$

MOZ041-047>049-056>058-063>065-088>090-097-011200-
...EASTERN AND SOUTHERN MISSOURI...

CITY           SKY/WX    TMP DP  RH WIND       PRES   REMARKS
ST. LOUIS INTL PTCLDY    59  55  87 S5        29.87R
SPIRIT OF STL  PTCLDY    54  54 100 CALM      29.86R FOG
COLUMBIA       CLOUDY    55  54  96 NW3       29.88R
JEFFERSON CITY MOCLDY    55  53  93 NW5       29.89R
ROLLA          PTCLDY    53  50  89 W9        29.88R
OSAGE BEACH    CLEAR     52  43  71 SW5       29.91S
SPRINGFIELD    CLEAR     50  44  80 CALM      29.92S
JOPLIN         PTCLDY    46  44  93 CALM      29.93S
WEST PLAINS    CLEAR     52  50  93 NW3       29.90S

$$

IAZ060-094-KSZ022-034>040-054-083-096-NEZ052-066-093-011200-
...KANSAS...SOUTHEAST NEBRASKA AND IOWA...

CITY           SKY/WX    TMP DP  RH WIND       PRES   REMARKS
TOPEKA         MOCLDY    48  44  86 SW5       29.92R
MANHATTAN      CLOUDY    49  43  80 W8        29.93R
EMPORIA        CLEAR     44  42  93 W7        29.93R
CHANUTE        PTCLDY    45  41  86 W6        29.94R
WICHITA        MOCLDY    43  39  86 W8        29.98R
OMAHA          DRIZZLE   45  43  93 NE9       29.95R
LINCOLN        CLOUDY    45  43  93 NE14G23   29.95R
FALLS CITY     CLOUDY    49  47  93 W5        29.89R
LAMONI         CLOUDY    45  45 100 NE12      29.91S FOG
DES MOINES     DRIZZLE   45  42  89 NE9       29.96S

$$





USA.gov is the U.S. government's official web portal to all federal, state and local government web resources and services.